Location: Newark
(5.8900°S, 42.6378°W)
Time: 19:59:52
(UTC+00:00)

deb Explorer IX - All Passes

Search period start: 15 October 2019 00:00
Search period end: 25 October 2019 00:00
Orbit: 544 x 1107 km, 38.8° (Epoch: 14 October)

Date Brightness Start Highest point End Pass type
(mag) Time Alt. Az. Time Alt. Az. Time Alt. Az.
15 Oct - 02:01:36 10° NNW 02:08:04 44° NE 02:13:45 10° ESE night (unlit)
15 Oct - 03:49:39 10° WNW 03:55:14 32° SW 04:00:08 10° SSE night (unlit)
15 Oct - 12:55:28 10° SSW 12:59:22 34° SE 13:03:40 10° ENE daylight
15 Oct - 14:42:24 10° W 14:46:13 25° NW 14:50:31 10° NNE daylight
16 Oct - 01:39:28 10° NNW 01:46:07 46° NE 01:51:58 10° ESE night (unlit)
16 Oct - 03:27:36 10° WNW 03:33:19 32° SW 03:38:22 10° SSE night (unlit)
16 Oct - 12:33:43 10° SSW 12:37:34 34° SE 12:41:46 10° ENE daylight
16 Oct - 14:20:47 10° W 14:24:24 24° NW 14:28:25 10° NNE daylight
17 Oct - 01:17:21 10° NNW 01:24:08 48° NE 01:30:11 10° ESE night (unlit)
17 Oct - 03:05:32 10° WNW 03:11:23 32° SW 03:16:33 10° SSE night (unlit)
17 Oct - 12:11:58 10° SSW 12:15:47 35° SE 12:19:54 10° ENE daylight
17 Oct - 13:59:10 10° W 14:02:35 22° NW 14:06:21 10° NNE daylight
18 Oct - 00:55:14 10° NNW 01:02:09 50° NE 01:08:23 10° ESE night (unlit)
18 Oct - 02:43:29 10° WNW 02:49:26 32° SW 02:54:45 10° SSE night (unlit)
18 Oct - 11:50:11 10° SSW 11:53:59 36° SE 11:58:02 10° ENE daylight
18 Oct - 13:37:34 10° W 13:40:47 20° NW 13:44:17 10° N daylight
19 Oct - 00:33:07 10° NW 00:40:08 52° NE 00:46:33 10° ESE night (unlit)
19 Oct - 02:21:26 10° W 02:27:29 32° SW 02:32:55 10° SSE night (unlit)
19 Oct - 11:28:24 10° SSW 11:32:14 38° SE 11:36:13 10° ENE daylight
19 Oct - 13:15:58 10° W 13:19:00 19° NW 13:22:13 10° N daylight
19 Oct - 22:29:08 10° NNE 22:30:21 10° NE 22:31:35 10° NE visible
20 Oct - 00:11:01 10° NW 00:18:07 54° NE 00:24:42 10° ESE night (unlit)
20 Oct - 01:59:23 10° W 02:05:31 32° SW 02:11:04 10° SSE night (unlit)
20 Oct - 11:06:36 10° SSW 11:10:27 39° SE 11:14:24 10° ENE daylight
20 Oct - 12:54:23 10° W 12:57:12 17° NW 13:00:10 10° N daylight
20 Oct - 22:06:37 10° NNE 22:08:23 11° NE 22:10:08 10° NE visible
20 Oct - 23:48:56 10° NW 23:56:06 56° NE 00:02:50 10° ESE visible
21 Oct - 01:37:20 10° W 01:43:32 31° SW 01:49:13 10° SSE night (unlit)
21 Oct - 10:44:47 10° SSW 10:48:41 41° SE 10:52:36 10° ENE daylight
21 Oct - 12:32:47 10° W 12:35:24 16° NW 12:38:08 10° N daylight
21 Oct - 21:44:16 10° NNE 21:46:23 11° NE 21:48:31 10° ENE visible
21 Oct - 23:26:52 10° NW 23:34:04 58° NE 23:40:56 10° ESE visible
22 Oct - 01:15:18 10° W 01:21:32 31° SW 01:27:20 10° SSE night (unlit)
22 Oct - 10:22:58 10° SSW 10:26:55 43° SE 10:30:50 10° ENE daylight
22 Oct - 12:11:11 10° WNW 12:13:37 15° NW 12:16:06 10° N daylight
22 Oct - 21:22:01 10° NNE 21:24:24 12° NE 21:26:47 10° ENE visible
22 Oct - 23:04:49 10° NW 23:12:02 60° NE 23:19:01 10° ESE visible
23 Oct - 00:53:17 10° W 00:59:33 31° SW 01:05:26 10° SSE night (unlit)
23 Oct - 10:01:07 10° SW 10:05:10 46° SE 10:09:04 10° ENE daylight
23 Oct - 11:49:36 10° WNW 11:51:49 14° NW 11:54:05 10° N daylight
23 Oct - 20:59:51 10° NNE 21:02:25 12° NE 21:05:00 10° ENE visible
23 Oct - 22:42:47 10° NW 22:49:59 62° NE 22:57:05 10° ESE visible
24 Oct - 00:31:16 10° W 00:37:32 30° SW 00:43:30 10° SSE visible
24 Oct - 09:39:15 10° SW 09:43:24 49° SE 09:47:19 10° ENE daylight
24 Oct - 11:28:00 10° WNW 11:30:02 13° NW 11:32:06 10° N daylight
24 Oct - 20:37:45 10° NNE 20:40:26 12° NE 20:43:10 10° ENE daylight
24 Oct - 22:20:46 10° NW 22:27:56 63° NE 22:35:07 10° ESE visible
